When you browse on this site, cookies collect data to enhance your experience and personalize the content and advertising you see.
Visit our Privacy Policy to learn more. By continuing to use the site, you agree to this use of cookies and data.
  • In Spain
  • List of Countries
  • For 7 days
  • Water Temperature
  • Weather Map
  • Weather Widgets
  • user-avatar
    Login

    Hourly Weather Córdoba

    Today, 23 January, Thursday

    Time Temperature Precipitation Wind Pressure Humidity
    00:00 +24°C° 0 mm 1 mps 724 mmHg 44%
    01:00 +24°C° 0 mm 1 mps 724 mmHg 45%
    02:00 +23°C° 0 mm 1 mps 724 mmHg 46%
    03:00 +23°C° 0 mm 1 mps 724 mmHg 48%
    04:00 +23°C° 0 mm 1 mps 724 mmHg 49%
    05:00 +23°C° 0 mm 1 mps 724 mmHg 50%
    06:00 +25°C° 0 mm 1 mps 724 mmHg 47%
    07:00 +27°C° 0 mm 2 mps 725 mmHg 44%
    08:00 +29°C° 0 mm 3 mps 725 mmHg 41%
    09:00 +30°C° 0 mm 3 mps 725 mmHg 37%
    10:00 +33°C° 0 mm 4 mps 725 mmHg 33%
    11:00 +34°C° 0 mm 4 mps 725 mmHg 29%
    12:00 +35°C° 0 mm 4 mps 724 mmHg 27%
    13:00 +36°C° 0 mm 4 mps 724 mmHg 26%
    14:00 +37°C° 0 mm 4 mps 723 mmHg 24%
    15:00 +37°C° 0 mm 4 mps 722 mmHg 24%
    16:00 +37°C° 0 mm 4 mps 722 mmHg 24%
    17:00 +37°C° 0 mm 4 mps 721 mmHg 24%
    18:00 +34°C° 0 mm 4 mps 722 mmHg 30%
    19:00 +32°C° 0 mm 4 mps 722 mmHg 35%
    20:00 +28°C° 0 mm 4 mps 722 mmHg 41%
    21:00 +27°C° 0 mm 4 mps 722 mmHg 43%
    22:00 +26°C° 0 mm 4 mps 722 mmHg 46%
    23:00 +25°C° 0 mm 3 mps 723 mmHg 49%

    Tomorrow, 24 January, Friday

    Time Temperature Precipitation Wind Pressure Humidity
    00:00 +25°C° 0 mm 3 mps 723 mmHg 50%
    01:00 +25°C° 0 mm 3 mps 723 mmHg 51%
    02:00 +24°C° 0 mm 3 mps 723 mmHg 51%
    03:00 +24°C° 0 mm 3 mps 722 mmHg 50%
    04:00 +24°C° 0 mm 2 mps 722 mmHg 49%
    05:00 +24°C° 0 mm 2 mps 722 mmHg 47%
    06:00 +26°C° 0 mm 2 mps 723 mmHg 43%
    07:00 +28°C° 0 mm 3 mps 723 mmHg 39%
    08:00 +30°C° 0 mm 3 mps 724 mmHg 35%
    09:00 +33°C° 0 mm 3 mps 724 mmHg 31%
    10:00 +35°C° 0 mm 3 mps 723 mmHg 26%
    11:00 +37°C° 0 mm 3 mps 723 mmHg 22%
    12:00 +38°C° 0 mm 3 mps 723 mmHg 21%
    13:00 +39°C° 0 mm 3 mps 722 mmHg 19%
    14:00 +40°C° 0 mm 3 mps 722 mmHg 18%
    15:00 +40°C° 0 mm 3 mps 721 mmHg 18%
    16:00 +39°C° 0 mm 3 mps 720 mmHg 18%
    17:00 +40°C° 0 mm 4 mps 720 mmHg 18%
    18:00 +37°C° 0 mm 4 mps 720 mmHg 21%
    19:00 +34°C° 0 mm 4 mps 720 mmHg 25%
    20:00 +30°C° 0 mm 4 mps 720 mmHg 29%
    21:00 +30°C° 0 mm 4 mps 720 mmHg 30%
    22:00 +29°C° 0 mm 4 mps 720 mmHg 32%
    23:00 +29°C° 0 mm 4 mps 721 mmHg 33%

    Day after tomorrow, 25 January, Saturday

    Time Temperature Precipitation Wind Pressure Humidity
    00:00 +28°C° 0 mm 3 mps 720 mmHg 33%
    01:00 +28°C° 0 mm 3 mps 720 mmHg 34%
    02:00 +28°C° 0 mm 2 mps 720 mmHg 34%
    03:00 +27°C° 0 mm 2 mps 720 mmHg 35%
    04:00 +27°C° 0 mm 2 mps 720 mmHg 36%
    05:00 +26°C° 0 mm 2 mps 720 mmHg 37%
    06:00 +28°C° 0 mm 2 mps 720 mmHg 33%
    07:00 +31°C° 0 mm 2 mps 721 mmHg 30%
    08:00 +34°C° 0 mm 2 mps 721 mmHg 26%
    09:00 +36°C° 0 mm 2 mps 721 mmHg 23%
    10:00 +38°C° 0 mm 2 mps 721 mmHg 19%
    11:00 +40°C° 0 mm 2 mps 721 mmHg 16%
    12:00 +41°C° 0 mm 2 mps 721 mmHg 15%
    13:00 +42°C° 0 mm 2 mps 720 mmHg 14%
    14:00 +44°C° 0 mm 1 mps 720 mmHg 12%
    15:00 +43°C° 0 mm 1 mps 719 mmHg 13%
    16:00 +43°C° 0 mm 2 mps 718 mmHg 13%
    17:00 +43°C° 0 mm 2 mps 718 mmHg 14%
    18:00 +40°C° 0 mm 2 mps 718 mmHg 17%
    19:00 +38°C° 0 mm 2 mps 718 mmHg 20%
    20:00 +35°C° 0 mm 2 mps 718 mmHg 24%
    21:00 +34°C° 0 mm 2 mps 719 mmHg 26%
    22:00 +32°C° 0 mm 2 mps 719 mmHg 28%
    23:00 +31°C° 0 mm 2 mps 720 mmHg 30%

    26 January, Sunday

    Time Temperature Precipitation Wind Pressure Humidity
    00:00 +31°C° 0 mm 3 mps 720 mmHg 29%
    01:00 +30°C° 0 mm 3 mps 720 mmHg 28%
    02:00 +30°C° 0 mm 3 mps 719 mmHg 27%
    03:00 +29°C° 0 mm 3 mps 719 mmHg 27%
    04:00 +28°C° 0 mm 2 mps 719 mmHg 27%
    05:00 +28°C° 0 mm 2 mps 719 mmHg 27%
    06:00 +29°C° 0 mm 2 mps 720 mmHg 24%
    07:00 +31°C° 0 mm 3 mps 720 mmHg 22%
    08:00 +34°C° 0 mm 3 mps 721 mmHg 19%
    09:00 +36°C° 0 mm 3 mps 721 mmHg 18%
    10:00 +38°C° 0 mm 3 mps 721 mmHg 16%
    11:00 +40°C° 0 mm 3 mps 721 mmHg 14%
    12:00 +41°C° 0 mm 2 mps 720 mmHg 14%
    13:00 +42°C° 0 mm 2 mps 720 mmHg 13%
    14:00 +43°C° 0 mm 2 mps 719 mmHg 13%
    15:00 +42°C° 0 mm 3 mps 719 mmHg 17%
    16:00 +40°C° 0 mm 5 mps 719 mmHg 21%
    17:00 +38°C° 0 mm 6 mps 718 mmHg 25%
    18:00 +35°C° 0 mm 5 mps 719 mmHg 27%
    19:00 +34°C° 0 mm 5 mps 719 mmHg 29%
    20:00 +33°C° 0 mm 4 mps 720 mmHg 31%
    21:00 +30°C° 0 mm 4 mps 720 mmHg 34%
    22:00 +29°C° 0 mm 3 mps 721 mmHg 37%
    23:00 +28°C° 0 mm 3 mps 721 mmHg 41%

    27 January, Monday

    Time Temperature Precipitation Wind Pressure Humidity
    00:00 +27°C° 0.2 mm 3 mps 721 mmHg 43%
    01:00 +27°C° 0.2 mm 3 mps 721 mmHg 46%
    02:00 +27°C° 0.2 mm 2 mps 722 mmHg 48%
    03:00 +26°C° 0.1 mm 3 mps 722 mmHg 50%
    04:00 +26°C° 0.1 mm 3 mps 722 mmHg 51%
    05:00 +26°C° 0.1 mm 3 mps 723 mmHg 52%
    06:00 +26°C° 0 mm 3 mps 723 mmHg 50%
    07:00 +26°C° 0 mm 3 mps 724 mmHg 47%
    08:00 +26°C° 0 mm 3 mps 724 mmHg 44%
    09:00 +26°C° 0.2 mm 3 mps 725 mmHg 46%
    10:00 +26°C° 0.2 mm 3 mps 725 mmHg 49%
    11:00 +27°C° 0.2 mm 3 mps 725 mmHg 51%
    12:00 +27°C° 0.2 mm 3 mps 725 mmHg 51%
    13:00 +27°C° 0.2 mm 3 mps 725 mmHg 51%
    14:00 +28°C° 0.2 mm 3 mps 725 mmHg 51%
    15:00 +27°C° 0.1 mm 3 mps 724 mmHg 53%
    16:00 +27°C° 0.1 mm 3 mps 724 mmHg 56%
    17:00 +26°C° 0.1 mm 3 mps 723 mmHg 59%
    18:00 +26°C° 0 mm 2 mps 723 mmHg 59%
    19:00 +25°C° 0 mm 2 mps 723 mmHg 60%
    20:00 +25°C° 0 mm 1 mps 723 mmHg 60%
    21:00 +25°C° 0 mm 2 mps 723 mmHg 58%
    22:00 +25°C° 0 mm 3 mps 723 mmHg 56%
    23:00 +25°C° 0 mm 4 mps 724 mmHg 54%

    28 January, Tuesday

    Time Temperature Precipitation Wind Pressure Humidity
    00:00 +25°C° 0 mm 4 mps 723 mmHg 57%
    01:00 +23°C° 0 mm 4 mps 723 mmHg 59%
    02:00 +23°C° 0 mm 4 mps 723 mmHg 62%
    03:00 +24°C° 0 mm 3 mps 723 mmHg 65%
    04:00 +22°C° 0 mm 3 mps 723 mmHg 67%
    05:00 +22°C° 0 mm 3 mps 723 mmHg 70%
    06:00 +22°C° 0 mm 3 mps 723 mmHg 68%
    07:00 +22°C° 0 mm 4 mps 723 mmHg 65%
    08:00 +22°C° 0 mm 4 mps 723 mmHg 63%
    09:00 +25°C° 0 mm 5 mps 723 mmHg 58%
    10:00 +27°C° 0 mm 5 mps 723 mmHg 52%
    11:00 +28°C° 0 mm 5 mps 723 mmHg 46%
    12:00 +29°C° 0 mm 5 mps 723 mmHg 44%
    13:00 +30°C° 0 mm 5 mps 722 mmHg 42%
    14:00 +32°C° 0 mm 4 mps 722 mmHg 40%
    15:00 +30°C° 0 mm 5 mps 721 mmHg 43%
    16:00 +30°C° 0 mm 5 mps 721 mmHg 45%
    17:00 +29°C° 0 mm 6 mps 720 mmHg 48%
    18:00 +27°C° 0 mm 5 mps 720 mmHg 58%
    19:00 +25°C° 0 mm 4 mps 720 mmHg 68%
    20:00 +22°C° 0 mm 3 mps 719 mmHg 78%
    21:00 +21°C° 0 mm 3 mps 719 mmHg 81%
    22:00 +20°C° 0 mm 2 mps 720 mmHg 85%
    23:00 +19°C° 0 mm 2 mps 720 mmHg 88%
    Show more